User: anonymous   Login
Location: Mactaquac Provincial Park
(45.9573°N, 66.8897°W)
Time: 22:33:26
(UTC-03:00)
Language:

Cosmos 1867 - Orbit

View from above orbital plane
View from above orbital plane
View from above satellite
View from above satellite

Ground track
Ground track

The orbit data is extracted from the following two-line orbital elements,

1 18187U 87060A   16175.94569655 -.00000096 +00000-0 +14512-5 0  9999
2 18187 065.0093 151.3715 0020888 266.9077 092.9617 14.31076107512503
Epoch (UTC): 23 June 2016 22:41:48
Eccentricity: 0.0020888
inclination: 65.0093°
perigee height: 773 km
apogee height: 803 km
right ascension of ascending node: 151.3715°
argument of perigee: 266.9077°
revolutions per day: 14.31076107
mean anomaly at epoch: 92.9617°
orbit number at epoch: 51250

The dashed part of the orbit path shows where the satellite is in the earth's shadow,  

DLR